FW5217 Jacksonville FL US current weather conditions

sailwx.info

Wind from 111

Air temperature 12.2° C
Dewpoint 6.7° C

Last reported at 2020-Jan-28 23:08 UTC.
Time now 2020-Jan-28 23:51 UTC

Location: N 30°17' W 081°29'.
View on Google Maps.

See reports from other nearby stations

  
Tides and Currents Weather Stations Pressure Air Temp Water Temp Dewpoint Dewpoint Depression Visibility Wind Speed Wind Dir Waves Ship Positions
date/time (UTC)wind fromknots sea level pressurealtimeterstation pressurevisibilityair tempwater tempwave heightnotes
2020-Jan-28 23:08 111 12.2
2020-Jan-28 23:03 111 0 gusting 1 12.8
2020-Jan-28 22:58 111 0 gusting 1 12.8
2020-Jan-28 22:53 111 12.8
2020-Jan-28 22:43 111 0 gusting 2 13.3
2020-Jan-28 22:38 113 0 gusting 5 13.3
2020-Jan-28 22:28 110 1 gusting 5 13.9
2020-Jan-28 22:24 103 0 gusting 4 13.9
2020-Jan-28 22:19 092 2 gusting 4 13.9
2020-Jan-28 22:13 092 0 gusting 2 14.4
2020-Jan-28 22:09 088 0 gusting 3 13.9
2020-Jan-28 22:04 080 1 gusting 5 13.9
2020-Jan-28 21:59 114 1 gusting 5 14.4
2020-Jan-28 21:53 086 1 gusting 4 14.4
2020-Jan-28 21:48 117 1 gusting 5 14.4
2020-Jan-28 21:38 053 2 gusting 5 14.4
2020-Jan-28 21:34 080 0 gusting 6 14.4
2020-Jan-28 21:29 087 0 gusting 6 14.4
2020-Jan-28 21:23 090 2 gusting 5 14.4
2020-Jan-28 21:18 084 1 gusting 5 15.0
2020-Jan-28 21:14 077 1 gusting 5 15.0
2020-Jan-28 21:08 092 2 gusting 4 15.0
2020-Jan-28 21:03 101 1 gusting 5 15.0
2020-Jan-28 20:58 148 1 gusting 5 15.0
2020-Jan-28 20:48 094 1 gusting 6 15.6
2020-Jan-28 20:44 082 1 gusting 6 15.0
2020-Jan-28 20:39 071 1 gusting 6 15.0
2020-Jan-28 20:33 072 2 gusting 5 15.0
2020-Jan-28 20:29 070 1 gusting 7 15.0
2020-Jan-28 20:24 086 1 gusting 7 15.0
2020-Jan-28 20:18 047 0 gusting 6 15.0
2020-Jan-28 20:13 103 2 gusting 9 15.0
2020-Jan-28 20:09 083 3 gusting 9 15.6
2020-Jan-28 19:58 094 2 gusting 6 15.6
2020-Jan-28 19:53 081 2 gusting 6 15.6
2020-Jan-28 19:49 191 0 gusting 6 15.6
2020-Jan-28 19:43 074 1 gusting 6 15.6
2020-Jan-28 19:38 076 1 gusting 6 15.6
2020-Jan-28 19:34 115 2 gusting 5 15.6
2020-Jan-28 19:28 009 1 gusting 6 16.1
2020-Jan-28 19:23 101 1 gusting 6 15.6
2020-Jan-28 19:19 034 1 gusting 5 15.6
2020-Jan-28 19:13 055 1 gusting 6 16.1
2020-Jan-28 19:08 092 3 gusting 7 16.1
2020-Jan-28 19:04 053 2 gusting 7 16.7
2020-Jan-28 18:53 355 3 gusting 12 16.7
2020-Jan-28 18:49 091 2 gusting 6 16.1
2020-Jan-28 18:44 032 1 gusting 7 16.1
2020-Jan-28 18:38 005 1 gusting 7 16.1
2020-Jan-28 18:33 260 1 gusting 7 16.1
2020-Jan-28 18:29 355 2 gusting 7 16.1
2020-Jan-28 18:23 285 0 gusting 6 15.6
2020-Jan-28 18:18 350 1 gusting 6 15.6
2020-Jan-28 18:14 024 2 gusting 6 15.6
2020-Jan-28 18:08 067 1 gusting 8 15.6
2020-Jan-28 18:03 032 1 gusting 8 15.0
2020-Jan-28 17:58 340 3 gusting 8 15.6
2020-Jan-28 17:54 022 1 gusting 6 15.0
2020-Jan-28 17:48 307 2 gusting 7 15.0
2020-Jan-28 17:43 041 1 gusting 7 15.0
2020-Jan-28 17:39 038 2 gusting 7 15.0
2020-Jan-28 17:34 091 2 gusting 8 15.6
2020-Jan-28 17:28 286 3 gusting 8 15.0
2020-Jan-28 17:23 351 1 gusting 5 15.0
2020-Jan-28 17:19 036 1 gusting 6 15.0
2020-Jan-28 17:14 034 2 gusting 6 15.0
2020-Jan-28 17:09 013 2 gusting 6 15.0
2020-Jan-28 16:58 031 1 gusting 5 15.0
2020-Jan-28 16:53 059 2 gusting 5 15.0
2020-Jan-28 16:49 313 1 gusting 6 15.0
2020-Jan-28 16:44 360 1 gusting 6 14.4
2020-Jan-28 16:38 333 2 gusting 6 15.0
2020-Jan-28 16:33 020 1 gusting 6 15.0
2020-Jan-28 16:23 038 1 gusting 5 14.4
2020-Jan-28 16:13 094 0 gusting 6 14.4
2020-Jan-28 16:09 241 0 gusting 4 14.4
2020-Jan-28 15:58 030 1 gusting 4 14.4
2020-Jan-28 15:48 349 2 gusting 7 14.4
2020-Jan-28 15:44 360 1 gusting 6 14.4
2020-Jan-28 15:38 333 1 gusting 5 14.4
2020-Jan-28 15:33 317 1 gusting 5 14.4
2020-Jan-28 15:23 321 2 gusting 5 13.9
2020-Jan-28 15:18 106 0 gusting 6 13.9
2020-Jan-28 15:14 351 1 gusting 6 13.9
2020-Jan-28 15:08 109 0 gusting 4 13.9
2020-Jan-28 15:03 103 1 gusting 4 13.9
2020-Jan-28 14:53 084 1 gusting 5 13.9
2020-Jan-28 14:48 037 0 gusting 4 13.3
2020-Jan-28 14:44 067 1 gusting 4 13.3
2020-Jan-28 14:38 141 0 gusting 3 12.8
2020-Jan-28 14:33 322 0 gusting 5 12.8
2020-Jan-28 14:23 015 1 gusting 4 12.2
2020-Jan-28 14:19 355 2 gusting 5 11.7
2020-Jan-28 14:14 341 1 gusting 6 11.7
2020-Jan-28 14:08 338 2 gusting 6 11.7
2020-Jan-28 14:03 036 2 gusting 5 11.7
2020-Jan-28 13:58 355 1 gusting 5 11.1
2020-Jan-28 13:54 355 1 gusting 5 11.1
2020-Jan-28 13:48 329 2 gusting 7 10.6
2020-Jan-28 13:43 016 2 gusting 7 10.6
2020-Jan-28 13:39 319 2 gusting 7 10.0
2020-Jan-28 13:33 030 2 gusting 5 10.0
2020-Jan-28 13:28 043 1 gusting 5 9.4
2020-Jan-28 13:18 017 3 gusting 6 8.9
2020-Jan-28 13:13 044 2 gusting 6 8.9
2020-Jan-28 13:09 005 1 gusting 6 8.9
2020-Jan-28 13:04 030 2 gusting 5 8.3
2020-Jan-28 12:59 343 2 gusting 5 8.3
2020-Jan-28 12:54 030 1 gusting 4 7.8
2020-Jan-28 12:48 345 1 gusting 4 7.8
2020-Jan-28 12:43 013 0 gusting 3 7.8
2020-Jan-28 12:39 337 0 gusting 4 7.8
2020-Jan-28 12:33 015 1 gusting 4 7.8
2020-Jan-28 12:28 350 0 gusting 2 7.8
2020-Jan-28 12:24 350 0 gusting 3 7.8
2020-Jan-28 12:18 349 1 gusting 4 7.8
2020-Jan-28 12:13 331 1 gusting 4 7.8
2020-Jan-28 12:09 333 1 gusting 3 7.8
2020-Jan-28 12:04 355 0 gusting 2 7.8
2020-Jan-28 11:59 355 0 gusting 2 7.8
2020-Jan-28 11:53 355 0 gusting 2 7.8
2020-Jan-28 11:48 349 0 gusting 3 8.3
2020-Jan-28 11:44 355 0 gusting 3 8.3
2020-Jan-28 11:38 360 1 gusting 4 8.3
2020-Jan-28 11:33 355 0 gusting 4 8.3
2020-Jan-28 11:29 333 0 gusting 4 8.3
2020-Jan-28 11:23 338 0 gusting 2 8.3
2020-Jan-28 11:18 331 0 gusting 2 8.3
2020-Jan-28 11:08 335 0 gusting 5 8.3
2020-Jan-28 11:03 005 0 gusting 5 8.3
2020-Jan-28 10:58 005 1 gusting 3 8.3
2020-Jan-28 10:54 005 1 gusting 3 8.3
2020-Jan-28 10:49 009 1 gusting 3 8.3
2020-Jan-28 10:43 355 0 gusting 3 8.9
2020-Jan-28 10:38 355 0 gusting 2 8.9
2020-Jan-28 10:34 345 0 gusting 2 8.9
2020-Jan-28 10:28 323 0 gusting 2 8.9
2020-Jan-28 10:23 340 0 gusting 4 8.9
2020-Jan-28 10:13 355 0 gusting 3 8.9
2020-Jan-28 10:08 355 0 gusting 3 8.9
2020-Jan-28 10:04 351 0 gusting 3 9.4
2020-Jan-28 09:59 005 0 gusting 3 9.4
2020-Jan-28 09:53 005 0 gusting 4 9.4
2020-Jan-28 09:48 342 1 gusting 4 9.4
2020-Jan-28 09:38 345 0 gusting 5 9.4
2020-Jan-28 09:33 349 0 gusting 3 10.0
2020-Jan-28 09:29 011 0 gusting 3 10.0
2020-Jan-28 09:23 337 1 gusting 4 10.0
2020-Jan-28 09:18 355 1 gusting 4 10.0
2020-Jan-28 09:14 005 1 gusting 5 10.0
2020-Jan-28 09:08 310 1 gusting 4 10.0
2020-Jan-28 09:03 348 0 gusting 6 10.0
2020-Jan-28 08:58 344 2 gusting 6 10.0
2020-Jan-28 08:54 028 1 gusting 6 10.0
2020-Jan-28 08:48 333 1 gusting 3 10.6
2020-Jan-28 08:43 015 1 gusting 6 10.6
2020-Jan-28 08:39 343 0 gusting 6 10.6
2020-Jan-28 08:33 360 2 gusting 4 10.6
2020-Jan-28 08:28 323 2 gusting 4 10.6
2020-Jan-28 08:24 015 1 gusting 4 10.6
2020-Jan-28 08:18 005 2 gusting 4 10.6
2020-Jan-28 08:13 300 0 gusting 3 10.0
2020-Jan-28 08:09 345 0 gusting 4 10.6
2020-Jan-28 07:58 005 0 gusting 3 10.0
2020-Jan-28 07:53 340 1 gusting 2 10.0
2020-Jan-28 07:49 329 0 gusting 2 10.0
2020-Jan-28 07:43 329 0 gusting 2 10.0
2020-Jan-28 07:38 324 0 gusting 2 10.0
2020-Jan-28 07:28 324 0 gusting 2 10.6
2020-Jan-28 07:24 324 10.6
2020-Jan-28 07:19 324 10.6
2020-Jan-28 07:13 324 0 gusting 4 10.6
2020-Jan-28 07:08 300 0 gusting 4 10.6
2020-Jan-28 07:04 331 0 gusting 1 10.6
2020-Jan-28 06:58 331 10.6
2020-Jan-28 06:53 331 10.6
2020-Jan-28 06:48 331 10.6
2020-Jan-28 06:43 331 11.1
2020-Jan-28 06:38 331 11.1
2020-Jan-28 06:33 331 0 gusting 2 11.1
2020-Jan-28 06:28 331 0 gusting 2 11.1
2020-Jan-28 06:23 331 0 gusting 2 11.1
2020-Jan-28 06:18 339 0 gusting 3 11.1
2020-Jan-28 06:13 355 0 gusting 3 10.6
2020-Jan-28 06:08 360 0 gusting 1 10.6
2020-Jan-28 06:03 360 0 gusting 1 10.6
2020-Jan-28 05:58 360 0 gusting 1 10.6
2020-Jan-28 05:53 360 0 gusting 1 10.6
2020-Jan-28 05:48 360 10.6
2020-Jan-28 05:43 360 11.1
2020-Jan-28 05:38 360 11.1
2020-Jan-28 05:33 360 11.1
2020-Jan-28 05:28 360 11.1
2020-Jan-28 05:23 360 11.7
2020-Jan-28 05:18 360 11.7
2020-Jan-28 05:13 360 11.7
2020-Jan-28 05:08 360 11.7
2020-Jan-28 05:03 360 11.7
2020-Jan-28 04:58 360 11.7
2020-Jan-28 04:54 360 11.7
2020-Jan-28 04:48 360 11.7
2020-Jan-28 04:43 360 0 gusting 3 12.2
2020-Jan-28 04:33 351 0 gusting 2 12.2
2020-Jan-28 04:28 014 0 gusting 1 12.2
2020-Jan-28 04:24 014 0 gusting 2 12.2
2020-Jan-28 04:18 350 0 gusting 2 12.2
2020-Jan-28 04:13 009 0 gusting 2 12.8
2020-Jan-28 04:09 009 0 gusting 2 12.8
2020-Jan-28 03:58 005 0 gusting 3 12.8
2020-Jan-28 03:53 016 0 gusting 2 12.8
2020-Jan-28 03:43 360 0 gusting 3 13.3
2020-Jan-28 03:39 360 0 gusting 2 13.3
2020-Jan-28 03:34 005 0 gusting 2 13.3
2020-Jan-28 03:28 005 0 gusting 3 13.3
2020-Jan-28 03:23 005 0 gusting 3 13.3
2020-Jan-28 03:19 005 0 gusting 3 13.3
2020-Jan-28 03:13 343 0 gusting 2 13.9
2020-Jan-28 03:08 321 0 gusting 5 13.9
2020-Jan-28 03:03 343 1 gusting 5 13.9
2020-Jan-28 02:59 026 1 gusting 7 13.9
2020-Jan-28 02:54 330 1 gusting 7 14.4
2020-Jan-28 02:48 349 2 gusting 5 14.4
2020-Jan-28 02:43 028 2 gusting 6 14.4
2020-Jan-28 02:39 334 3 gusting 6 14.4
2020-Jan-28 02:33 017 1 gusting 5 14.4
2020-Jan-28 02:28 025 1 gusting 4 14.4
2020-Jan-28 02:24 344 2 gusting 4 14.4
2020-Jan-28 02:19 355 0 gusting 3 15.0
2020-Jan-28 02:13 349 0 gusting 3 15.0
2020-Jan-28 02:08 345 1 gusting 3 15.0
2020-Jan-28 01:58 327 0 gusting 2 15.0
2020-Jan-28 01:53 348 0 gusting 2 15.0
2020-Jan-28 01:49 355 0 gusting 1 15.0
2020-Jan-28 01:43 241 15.0
2020-Jan-28 01:38 241 15.0
2020-Jan-28 01:28 241 15.6
2020-Jan-28 01:23 241 15.6
2020-Jan-28 01:13 241 15.6
2020-Jan-28 01:08 241 15.6
2020-Jan-28 01:04 241 15.6
2020-Jan-28 00:59 241 15.6
2020-Jan-28 00:53 241 15.6
2020-Jan-28 00:48 241 15.6
2020-Jan-28 00:38 241 15.6
2020-Jan-28 00:28 241 16.1
2020-Jan-28 00:24 241 16.1
2020-Jan-28 00:19 241 16.1
2020-Jan-28 00:13 241 16.1
2020-Jan-28 00:08 241 16.1
2020-Jan-28 00:04 241 16.1
2020-Jan-27 23:53 241 16.1
2020-Jan-27 23:48 241 0 gusting 1 16.1
2020-Jan-27 23:44 241 0 gusting 1 16.7
2020-Jan-27 23:39 241 0 gusting 1 16.7
2020-Jan-27 23:33 241 16.7
2020-Jan-27 23:28 241 0 gusting 1 16.7
2020-Jan-27 23:24 241 0 gusting 1 16.7
2020-Jan-27 23:19 241 0 gusting 1 16.7
2020-Jan-27 23:13 241 16.7
2020-Jan-27 23:08 241 0 gusting 1 16.7
2020-Jan-27 22:59 241 0 gusting 2 16.7
2020-Jan-27 22:53 241 0 gusting 2 16.7
2020-Jan-27 22:48 241 0 gusting 2 16.7
2020-Jan-27 22:43 242 0 gusting 2 16.7
2020-Jan-27 22:39 261 0 gusting 2 17.2
2020-Jan-27 22:34 261 0 gusting 2 17.2
2020-Jan-27 22:28 261 0 gusting 2 17.2
2020-Jan-27 22:23 252 0 gusting 3 17.2
2020-Jan-27 22:13 230 0 gusting 1 17.2
2020-Jan-27 22:09 273 0 gusting 4 17.2
2020-Jan-27 21:58 237 1 gusting 3 17.2
2020-Jan-27 21:48 321 1 gusting 5 17.2
2020-Jan-27 21:43 274 1 gusting 5 17.2
2020-Jan-27 21:38 237 1 gusting 5 17.2
2020-Jan-27 21:34 254 1 gusting 6 17.2
2020-Jan-27 21:28 271 2 gusting 6 17.2
2020-Jan-27 21:23 259 2 gusting 5 17.2
2020-Jan-27 21:13 233 1 gusting 6 17.2
2020-Jan-27 21:09 254 0 gusting 6 17.2
2020-Jan-27 20:58 234 1 gusting 3 17.2
2020-Jan-27 20:53 284 0 gusting 5 17.2
2020-Jan-27 20:49 252 1 gusting 6 17.2
2020-Jan-27 20:44 232 3 gusting 6 17.2
2020-Jan-27 20:38 265 1 gusting 6 16.7
2020-Jan-27 20:34 238 2 gusting 6 16.7
2020-Jan-27 20:29 256 0 gusting 3 16.7
2020-Jan-27 20:23 232 1 gusting 5 16.7
2020-Jan-27 20:18 258 1 gusting 5 16.7
2020-Jan-27 20:14 282 1 gusting 4 17.2
2020-Jan-27 20:08 244 1 gusting 4 17.2
2020-Jan-27 20:03 287 0 gusting 4 17.2
2020-Jan-27 19:58 232 1 gusting 4 17.2
2020-Jan-27 19:54 239 0 gusting 3 17.2
2020-Jan-27 19:48 279 1 gusting 4 17.2
2020-Jan-27 19:43 249 1 gusting 6 17.2
2020-Jan-27 19:39 250 0 gusting 6 17.2
2020-Jan-27 19:33 292 2 gusting 7 17.8
2020-Jan-27 19:28 236 2 gusting 7 17.8
2020-Jan-27 19:24 296 3 gusting 6 17.8
2020-Jan-27 19:18 301 1 gusting 4 17.8
2020-Jan-27 19:13 281 2 gusting 5 18.3
2020-Jan-27 19:09 298 1 gusting 5 17.8
2020-Jan-27 18:58 237 1 gusting 6 17.8
2020-Jan-27 18:53 256 2 gusting 6 17.8
2020-Jan-27 18:49 240 0 gusting 4 17.8
2020-Jan-27 18:44 321 1 gusting 5 17.8
2020-Jan-27 18:38 235 1 gusting 4 17.2
2020-Jan-27 18:33 266 1 gusting 5 17.2
2020-Jan-27 18:29 165 0 gusting 3 17.2
2020-Jan-27 18:23 158 1 gusting 3 16.7
2020-Jan-27 18:18 261 1 gusting 3 16.7
2020-Jan-27 18:14 149 0 gusting 3 16.7
2020-Jan-27 18:08 150 0 gusting 3 16.1
2020-Jan-27 18:03 155 2 gusting 4 16.1
2020-Jan-27 17:58 137 0 gusting 2 16.1
2020-Jan-27 17:54 259 0 gusting 1 16.1
2020-Jan-27 17:49 118 0 gusting 2 16.1
2020-Jan-27 17:43 167 0 gusting 2 16.1
2020-Jan-27 17:38 159 1 gusting 2 16.1
2020-Jan-27 17:34 165 0 gusting 3 16.1
2020-Jan-27 17:28 140 0 gusting 2 16.1
2020-Jan-27 17:23 140 0 gusting 3 16.1
2020-Jan-27 17:19 107 0 gusting 3 15.6
2020-Jan-27 17:13 116 1 gusting 2 15.6
2020-Jan-27 17:08 144 0 gusting 5 15.6
2020-Jan-27 16:58 151 1 gusting 5 15.6
2020-Jan-27 16:53 123 1 gusting 4 15.6
2020-Jan-27 16:49 164 1 gusting 4 15.6
2020-Jan-27 16:43 150 1 gusting 2 15.6
2020-Jan-27 16:38 128 0 gusting 1 15.6
2020-Jan-27 16:28 128 0 gusting 2 15.0
2020-Jan-27 16:18 144 0 gusting 2 15.0
2020-Jan-27 16:08 169 0 gusting 2 15.0
2020-Jan-27 16:03 169 0 gusting 2 15.0
2020-Jan-27 15:58 169 0 gusting 2 15.0
2020-Jan-27 15:54 132 1 gusting 2 15.0
2020-Jan-27 15:48 123 14.4
2020-Jan-27 15:43 123 1 gusting 2 14.4
2020-Jan-27 15:39 140 0 gusting 2 14.4
2020-Jan-27 15:33 140 1 gusting 2 14.4
2020-Jan-27 15:28 111 1 gusting 1 14.4
2020-Jan-27 15:24 052 0 gusting 1 14.4
2020-Jan-27 15:18 040 0 gusting 1 14.4
2020-Jan-27 15:13 040 0 gusting 3 14.4
2020-Jan-27 15:09 024 0 gusting 3 14.4
2020-Jan-27 15:04 005 0 gusting 3 14.4
2020-Jan-27 14:59 103 1 gusting 3 14.4
2020-Jan-27 14:53 069 0 gusting 2 13.9
2020-Jan-27 14:48 050 0 gusting 2 13.3
2020-Jan-27 14:44 044 13.3
2020-Jan-27 14:38 044 0 gusting 1 13.3
2020-Jan-27 14:33 035 0 gusting 1 13.3
2020-Jan-27 14:29 035 1 gusting 2 12.8
2020-Jan-27 14:23 017 0 gusting 2 12.8
2020-Jan-27 14:18 016 0 gusting 1 12.8
2020-Jan-27 14:14 016 0 gusting 1 12.8
2020-Jan-27 14:08 016 12.2
2020-Jan-27 14:03 355 0 gusting 1 12.2
2020-Jan-27 13:58 355 0 gusting 1 12.2
2020-Jan-27 13:48 355 11.7
2020-Jan-27 13:44 355 11.7
2020-Jan-27 13:39 355 11.7
2020-Jan-27 13:33 355 11.7
2020-Jan-27 13:28 355 11.7
2020-Jan-27 13:24 355 11.7
2020-Jan-27 13:18 355 11.7
2020-Jan-27 13:13 355 11.7
2020-Jan-27 13:08 355 11.7
2020-Jan-27 13:04 355 11.7
2020-Jan-27 12:59 355 11.7
2020-Jan-27 12:53 355 11.7
2020-Jan-27 12:48 355 11.7
2020-Jan-27 12:43 355 11.7
2020-Jan-27 12:39 355 11.7
2020-Jan-27 12:34 355 11.7
2020-Jan-27 12:28 355 11.7
2020-Jan-27 12:23 355 11.7
2020-Jan-27 12:19 355 11.7
2020-Jan-27 12:13 355 11.7
2020-Jan-27 12:08 355 11.7
2020-Jan-27 12:04 355 11.7
2020-Jan-27 11:53 355 0 gusting 1 11.7
2020-Jan-27 11:43 355 0 gusting 2 11.7
2020-Jan-27 11:38 355 0 gusting 2 11.7
2020-Jan-27 11:34 011 11.7
2020-Jan-27 11:28 012 11.7
2020-Jan-27 11:23 012 0 gusting 2 11.7
2020-Jan-27 11:19 020 0 gusting 2 11.7
2020-Jan-27 11:13 035 0 gusting 2 11.7
2020-Jan-27 11:09 035 11.7
2020-Jan-27 11:04 078 0 gusting 2 11.7
2020-Jan-27 10:59 169 0 gusting 2 11.7
2020-Jan-27 10:53 171 11.7
2020-Jan-27 10:48 171 0 gusting 1 11.7
2020-Jan-27 10:38 171 11.7
2020-Jan-27 10:28 171 11.7
2020-Jan-27 10:24 171 11.7
2020-Jan-27 10:19 171 11.7
2020-Jan-27 10:13 171 11.7
2020-Jan-27 10:08 171 11.7
2020-Jan-27 09:58 171 11.7
2020-Jan-27 09:53 171 11.7
2020-Jan-27 09:43 171 11.7
2020-Jan-27 09:39 171 11.7
2020-Jan-27 09:34 171 11.7
2020-Jan-27 09:28 171 11.7
2020-Jan-27 09:23 171 11.7
2020-Jan-27 09:19 171 11.7
2020-Jan-27 09:14 171 11.7
2020-Jan-27 09:08 171 11.7
2020-Jan-27 09:03 171 11.7
2020-Jan-27 08:58 171 12.2
2020-Jan-27 08:54 171 12.2
2020-Jan-27 08:48 171 12.2
2020-Jan-27 08:43 171 12.2
2020-Jan-27 08:39 171 12.2
2020-Jan-27 08:33 171 0 gusting 1 12.2
2020-Jan-27 08:28 171 0 gusting 1 12.2
2020-Jan-27 08:24 171 0 gusting 1 12.2
2020-Jan-27 08:18 171 12.2
2020-Jan-27 08:13 171 0 gusting 2 12.2
2020-Jan-27 08:09 171 0 gusting 2 11.7
2020-Jan-27 07:58 171 0 gusting 2 11.7
2020-Jan-27 07:53 171 0 gusting 2 11.7
2020-Jan-27 07:49 169 1 gusting 2 11.7
2020-Jan-27 07:43 057 11.7
2020-Jan-27 07:38 057 11.7
2020-Jan-27 07:34 057 11.7
2020-Jan-27 07:28 350 11.7
2020-Jan-27 07:23 350 0 gusting 1 11.7
2020-Jan-27 07:19 350 11.7
2020-Jan-27 07:13 349 0 gusting 1 11.7
2020-Jan-27 07:08 349 0 gusting 1 11.7
2020-Jan-27 07:04 349 0 gusting 1 11.7
2020-Jan-27 06:58 349 11.7
2020-Jan-27 06:53 349 11.7
2020-Jan-27 06:48 349 0 gusting 1 11.7
2020-Jan-27 06:43 005 11.7
2020-Jan-27 06:38 005 11.7
2020-Jan-27 06:33 005 11.7
2020-Jan-27 06:28 005 11.7
2020-Jan-27 06:23 005 11.7
2020-Jan-27 06:18 355 11.7
2020-Jan-27 06:13 355 0 gusting 5 11.7
2020-Jan-27 06:08 350 0 gusting 5 11.7
2020-Jan-27 06:03 360 0 gusting 2 11.7
2020-Jan-27 05:58 355 0 gusting 1 11.7
2020-Jan-27 05:53 355 0 gusting 3 11.7
2020-Jan-27 05:48 342 0 gusting 3 11.7
2020-Jan-27 05:43 355 0 gusting 2 11.7
2020-Jan-27 05:38 022 0 gusting 1 12.2
2020-Jan-27 05:33 022 12.2
2020-Jan-27 05:28 022 12.2
2020-Jan-27 05:23 022 12.2
2020-Jan-27 05:18 022 12.2
2020-Jan-27 05:13 022 12.2
2020-Jan-27 05:08 022 12.8
2020-Jan-27 05:03 022 12.8
2020-Jan-27 04:58 022 12.8
2020-Jan-27 04:53 022 0 gusting 0 12.8
2020-Jan-27 04:49 022 12.8
2020-Jan-27 04:43 022 12.8
2020-Jan-27 04:38 022 12.8
2020-Jan-27 04:34 022 12.8
2020-Jan-27 04:28 022 12.8
2020-Jan-27 04:24 022 12.8
2020-Jan-27 04:19 022 12.8
2020-Jan-27 04:13 022 12.8
2020-Jan-27 04:08 022 13.3
2020-Jan-27 04:04 022 13.3
2020-Jan-27 03:59 022 13.3
2020-Jan-27 03:54 022 13.3
2020-Jan-27 03:48 022 13.3
2020-Jan-27 03:43 022 13.3
2020-Jan-27 03:39 022 13.3
2020-Jan-27 03:33 022 13.3
2020-Jan-27 03:28 022 13.3
2020-Jan-27 03:24 022 13.3
2020-Jan-27 03:19 022 12.8
2020-Jan-27 03:13 022 12.8
2020-Jan-27 03:08 022 12.8
2020-Jan-27 02:58 022 12.8
2020-Jan-27 02:53 022 12.8
2020-Jan-27 02:49 022 13.3
2020-Jan-27 02:43 022 13.3
2020-Jan-27 02:38 022 13.3
2020-Jan-27 02:33 022 13.3
2020-Jan-27 02:28 022 13.3
2020-Jan-27 02:23 022 13.3
2020-Jan-27 02:19 022 13.3
2020-Jan-27 02:13 022 13.3
2020-Jan-27 02:09 022 13.3
2020-Jan-27 01:58 022 13.3
2020-Jan-27 01:53 022 13.9
2020-Jan-27 01:49 022 13.9
2020-Jan-27 01:43 022 13.9
2020-Jan-27 01:38 022 13.9
2020-Jan-27 01:33 022 13.9
2020-Jan-27 01:23 022 13.9
2020-Jan-27 01:18 022 13.9
2020-Jan-27 01:13 022 13.9
2020-Jan-27 01:09 022 13.9
2020-Jan-27 00:58 022 13.9
2020-Jan-27 00:53 022 13.9
2020-Jan-27 00:49 022 13.9
2020-Jan-27 00:44 022 13.9
2020-Jan-27 00:39 022 14.4
2020-Jan-27 00:34 022 14.4
2020-Jan-27 00:28 022 14.4
2020-Jan-27 00:23 022 14.4
2020-Jan-27 00:18 022 14.4
2020-Jan-27 00:14 022 14.4
2020-Jan-27 00:09 022 14.4
2020-Jan-26 23:58 022 15.0
2020-Jan-26 23:53 022 0 gusting 0 15.0
2020-Jan-26 23:49 022 15.0
2020-Jan-26 23:43 022 0 gusting 1 15.0
2020-Jan-26 23:38 022 15.6
2020-Jan-26 23:33 022 15.6
2020-Jan-26 23:29 022 15.6
2020-Jan-26 23:23 022 0 gusting 1 16.1
2020-Jan-26 23:18 005 16.1
2020-Jan-26 23:14 005 0 gusting 1 16.1
2020-Jan-26 23:09 331 16.1